Погода в Дорчестере

Великобритания     50°42′35″N   2°26′25″W
темп.,
°C
ветер,
м/с
пор.,
м/с
влажн.,
%
обл.,
%
осадки,
мм/ч
давл.,
гПа
погр.,
м
6 мая, чт
чт601:00+3з1183100 0.0 101070
04:00+3ююз1183100 0.0 1008100
07:00+5ююв1177100 0.0 1006131
10:00+7з2270100 0.1 1006912
13:00+7сз568487 0.4 1007756
16:00+9сз567023 0.4 10071169
19:00+8сз58641 0.7 1009746
22:00+3ссз34834 0.0 101283
7 мая, пт
пт701:00+1сз34880 0.0 101373
04:00+1сз34900 0.0 101571
07:00+3сз23840 0.0 101698
10:00+9сз33635 0.0 1017954
13:00+10юз556732 0.4 10181052
16:00+10юз556224 0.1 1017905
19:00+8ююз357197 0.1 1017433
22:00+5юв2374100 0.0 101676
8 мая, сб
сб801:00+7юв51172100 0.0 1013408
04:00+7ююв71395100 1.3 1009604
07:00+9ююв101999100 7.9 1004701
10:00+11ююз111998100 10.1 1002964
13:00+12ююз111997100 12.9 1002712
16:00+12юз10179399 0.1 1002696
19:00+13юз9188932 0.1 1001849
22:00+11ююз7169175 0.0 1001726
9 мая, вс
вс901:00+11ю6139193 0.0 999685
04:00+10ю614910 0.0 996426
07:00+12ю8187972 0.0 994714
10:00+13ююз9157883 0.0 994861
13:00+11ююз61087100 0.1 995631
16:00+13ююз9138060 0.0 9961100
19:00+11ююз714845 0.0 9961003
22:00+10ююз9158460 0.0 996831
10 мая, пн
пн1001:00+10ю9159124 0.3 996750
04:00+9ююз10159450 0.5 997769
07:00+9ююз10149327 1.0 998847
10:00+11ююз1014881 0.6 9991143
13:00+12ююз1014805 1.1 10011257
16:00+12ююз813745 0.1 10021225
19:00+11ю611825 0.2 1002909
22:00+8ююз512874 0.1 1003466